GFSNE_prec_precacc24_348.txt.gz
Total_Precipitation_Accumulation
0.00 0.00 0.00 0.00 0.00 0.00 0.00 0.00 0.00 0.00 0.00 0.00 0.00 0.00 0.00 0.00 0.00 0.00 0.00 0.00 0.00 0.00 0.00 0.00 0.00 0.00 0.00 0.00 0.01 0.03 0.05 0.06 0.06 0.09 0.06 0.05 0.06 0.06
0.00 0.00 0.00 0.00 0.00 0.00 0.00 0.00 0.00 0.00 0.00 0.00 0.00 0.00 0.00 0.00 0.00 0.00 0.00 0.00 0.00 0.00 0.00 0.00 0.00 0.00 0.00 0.00 0.01 0.03 0.06 0.06 0.06 0.06 0.04 0.05 0.05 0.04
0.00 0.00 0.00 0.00 0.00 0.00 0.00 0.00 0.00 0.00 0.00 0.00 0.00 0.00 0.00 0.00 0.00 0.00 0.00 0.00 0.00 0.00 0.00 0.00 0.00 0.00 0.00 0.00 0.01 0.03 0.08 0.06 0.04 0.03 0.03 0.03 0.03 0.03
0.00 0.00 0.00 0.00 0.00 0.00 0.00 0.00 0.00 0.00 0.00 0.00 0.00 0.00 0.00 0.00 0.00 0.00 0.00 0.00 0.00 0.00 0.00 0.00 0.00 0.00 0.00 0.00 0.01 0.03 0.09 0.04 0.02 0.01 0.02 0.03 0.02 0.02
0.02 0.02 0.01 0.00 0.01 0.00 0.00 0.00 0.00 0.00 0.00 0.00 0.00 0.00 0.00 0.00 0.00 0.00 0.00 0.00 0.00 0.00 0.00 0.00 0.00 0.00 0.00 0.00 0.00 0.01 0.07 0.03 0.02 0.01 0.02 0.02 0.01 0.02
0.01 0.02 0.01 0.00 0.01 0.00 0.00 0.00 0.00 0.00 0.00 0.00 0.00 0.00 0.00 0.00 0.00 0.00 0.00 0.00 0.00 0.00 0.00 0.00 0.00 0.01 0.01 0.01 0.00 0.00 0.05 0.03 0.01 0.02 0.02 0.02 0.01 0.01
0.00 0.00 0.00 0.00 0.00 0.00 0.01 0.00 0.00 0.00 0.00 0.00 0.00 0.00 0.00 0.01 0.01 0.01 0.01 0.01 0.01 0.01 0.02 0.01 0.01 0.01 0.01 0.01 0.00 0.01 0.05 0.04 0.01 0.02 0.02 0.02 0.01 0.00
0.03 0.01 0.01 0.02 0.02 0.04 0.03 0.02 0.02 0.01 0.01 0.00 0.01 0.02 0.04 0.04 0.03 0.03 0.06 0.08 0.10 0.05 0.04 0.03 0.03 0.03 0.01 0.00 0.01 0.02 0.03 0.04 0.02 0.03 0.01 0.01 0.00 0.00
0.02 0.02 0.03 0.03 0.08 0.07 0.08 0.12 0.11 0.12 0.09 0.09 0.07 0.07 0.08 0.10 0.16 0.17 0.18 0.19 0.14 0.08 0.05 0.03 0.01 0.02 0.02 0.02 0.01 0.01 0.02 0.03 0.02 0.03 0.01 0.01 0.01 0.00
0.05 0.07 0.09 0.10 0.17 0.22 0.18 0.15 0.16 0.20 0.30 0.34 0.27 0.23 0.25 0.26 0.22 0.21 0.20 0.17 0.12 0.07 0.07 0.10 0.05 0.03 0.02 0.01 0.01 0.01 0.02 0.02 0.03 0.02 0.01 0.01 0.00 0.00
0.23 0.22 0.28 0.21 0.39 0.53 0.39 0.29 0.31 0.28 0.34 0.41 0.30 0.24 0.24 0.22 0.20 0.19 0.18 0.16 0.14 0.07 0.04 0.06 0.05 0.04 0.02 0.01 0.00 0.01 0.01 0.01 0.02 0.01 0.00 0.00 0.00 0.00
0.23 0.21 0.39 0.27 0.33 0.38 0.30 0.19 0.21 0.19 0.20 0.24 0.24 0.19 0.16 0.14 0.16 0.07 0.03 0.05 0.10 0.13 0.09 0.10 0.06 0.05 0.05 0.02 0.00 0.00 0.00 0.00 0.01 0.00 0.00 0.00 0.00 0.00
0.16 0.16 0.17 0.33 0.28 0.25 0.24 0.17 0.19 0.24 0.24 0.19 0.12 0.10 0.07 0.05 0.06 0.06 0.06 0.10 0.14 0.14 0.11 0.12 0.05 0.03 0.02 0.00 0.00 0.00 0.00 0.00 0.00 0.00 0.00 0.00 0.00 0.00
0.11 0.12 0.17 0.43 0.32 0.26 0.23 0.18 0.22 0.20 0.15 0.12 0.08 0.06 0.06 0.07 0.07 0.07 0.08 0.08 0.07 0.04 0.02 0.04 0.04 0.03 0.05 0.03 0.01 0.00 0.00 0.00 0.00 0.00 0.00 0.00 0.00 0.00
0.02 0.08 0.19 0.32 0.25 0.19 0.14 0.13 0.13 0.08 0.06 0.06 0.05 0.06 0.04 0.04 0.04 0.06 0.07 0.07 0.07 0.04 0.03 0.03 0.03 0.03 0.04 0.04 0.02 0.00 0.02 0.01 0.01 0.01 0.00 0.00 0.00 0.00
0.06 0.12 0.17 0.20 0.19 0.13 0.13 0.11 0.07 0.05 0.06 0.05 0.05 0.06 0.07 0.07 0.07 0.06 0.08 0.09 0.11 0.12 0.10 0.08 0.08 0.06 0.07 0.04 0.03 0.02 0.02 0.04 0.02 0.01 0.00 0.00 0.00 0.00
0.14 0.10 0.16 0.13 0.10 0.08 0.08 0.08 0.08 0.10 0.12 0.10 0.10 0.09 0.08 0.08 0.10 0.13 0.16 0.17 0.17 0.16 0.18 0.19 0.17 0.14 0.08 0.03 0.03 0.02 0.02 0.01 0.02 0.01 0.01 0.00 0.00 0.00
0.14 0.06 0.04 0.04 0.05 0.06 0.08 0.12 0.13 0.15 0.11 0.09 0.10 0.10 0.12 0.16 0.22 0.26 0.25 0.22 0.19 0.18 0.17 0.14 0.15 0.15 0.09 0.05 0.02 0.02 0.01 0.01 0.01 0.01 0.01 0.01 0.00 0.00
0.07 0.03 0.03 0.04 0.06 0.07 0.08 0.11 0.14 0.17 0.16 0.17 0.16 0.17 0.20 0.26 0.37 0.29 0.22 0.21 0.20 0.16 0.14 0.12 0.13 0.09 0.07 0.04 0.02 0.02 0.01 0.01 0.02 0.02 0.01 0.02 0.01 0.00
0.05 0.04 0.05 0.06 0.08 0.12 0.15 0.18 0.24 0.25 0.24 0.22 0.23 0.25 0.26 0.27 0.28 0.22 0.19 0.16 0.16 0.16 0.14 0.11 0.12 0.09 0.08 0.06 0.05 0.02 0.01 0.01 0.02 0.02 0.02 0.02 0.00 0.00
0.04 0.05 0.06 0.08 0.10 0.13 0.17 0.22 0.24 0.25 0.26 0.26 0.26 0.25 0.24 0.24 0.21 0.16 0.16 0.17 0.18 0.14 0.09 0.07 0.06 0.10 0.09 0.05 0.05 0.02 0.00 0.00 0.02 0.05 0.05 0.04 0.02 0.01
0.11 0.12 0.13 0.15 0.18 0.21 0.24 0.27 0.29 0.31 0.26 0.22 0.21 0.19 0.19 0.18 0.16 0.15 0.16 0.18 0.16 0.09 0.09 0.10 0.14 0.10 0.06 0.05 0.03 0.02 0.01 0.01 0.01 0.02 0.04 0.05 0.03 0.02
0.21 0.21 0.22 0.25 0.26 0.26 0.26 0.26 0.25 0.23 0.18 0.18 0.18 0.17 0.17 0.19 0.15 0.16 0.16 0.16 0.14 0.13 0.10 0.12 0.15 0.09 0.08 0.06 0.05 0.03 0.02 0.01 0.01 0.00 0.01 0.01 0.01 0.01

GFSNE_prec_precacc24_351.txt.gz
Total_Precipitation_Accumulation
0.00 0.00 0.00 0.00 0.00 0.00 0.00 0.00 0.00 0.00 0.00 0.00 0.00 0.00 0.00 0.00 0.00 0.00 0.00 0.00 0.00 0.00 0.00 0.00 0.00 0.00 0.00 0.00 0.01 0.03 0.04 0.05 0.04 0.03 0.04 0.05 0.05 0.04
0.00 0.00 0.00 0.00 0.00 0.00 0.00 0.00 0.00 0.00 0.00 0.00 0.00 0.00 0.00 0.00 0.00 0.00 0.00 0.00 0.00 0.00 0.00 0.00 0.00 0.00 0.00 0.00 0.01 0.02 0.04 0.03 0.02 0.03 0.04 0.04 0.03 0.03
0.00 0.00 0.00 0.00 0.00 0.00 0.00 0.00 0.00 0.00 0.00 0.00 0.00 0.00 0.00 0.00 0.00 0.00 0.00 0.00 0.00 0.00 0.00 0.00 0.00 0.00 0.00 0.00 0.01 0.02 0.04 0.02 0.02 0.02 0.02 0.02 0.02 0.02
0.00 0.00 0.00 0.00 0.00 0.00 0.00 0.00 0.00 0.00 0.00 0.00 0.00 0.00 0.00 0.00 0.00 0.00 0.00 0.00 0.00 0.00 0.00 0.00 0.00 0.00 0.00 0.00 0.01 0.02 0.04 0.02 0.02 0.01 0.02 0.02 0.01 0.02
0.02 0.02 0.01 0.01 0.01 0.01 0.00 0.00 0.01 0.00 0.00 0.00 0.00 0.00 0.00 0.00 0.00 0.00 0.00 0.00 0.00 0.00 0.00 0.00 0.00 0.00 0.00 0.00 0.01 0.01 0.03 0.02 0.02 0.01 0.02 0.01 0.01 0.01
0.03 0.03 0.03 0.01 0.01 0.01 0.01 0.00 0.00 0.00 0.00 0.00 0.01 0.00 0.00 0.00 0.00 0.00 0.00 0.00 0.00 0.00 0.00 0.00 0.01 0.02 0.03 0.03 0.02 0.01 0.04 0.03 0.02 0.02 0.02 0.01 0.01 0.00
0.01 0.01 0.01 0.01 0.01 0.01 0.02 0.00 0.00 0.00 0.01 0.01 0.01 0.01 0.01 0.01 0.01 0.01 0.01 0.01 0.01 0.01 0.02 0.02 0.02 0.03 0.03 0.04 0.03 0.03 0.04 0.05 0.03 0.02 0.02 0.02 0.01 0.00
0.07 0.05 0.03 0.05 0.04 0.10 0.07 0.04 0.04 0.02 0.02 0.02 0.02 0.04 0.04 0.04 0.03 0.04 0.07 0.10 0.13 0.06 0.06 0.05 0.05 0.04 0.02 0.01 0.03 0.03 0.02 0.04 0.03 0.04 0.02 0.01 0.00 0.00
0.04 0.06 0.08 0.09 0.18 0.11 0.15 0.19 0.16 0.20 0.19 0.18 0.11 0.08 0.08 0.11 0.20 0.23 0.22 0.23 0.20 0.13 0.09 0.05 0.02 0.02 0.03 0.03 0.04 0.03 0.03 0.04 0.03 0.03 0.01 0.01 0.01 0.00
0.06 0.09 0.13 0.14 0.26 0.35 0.24 0.17 0.19 0.25 0.39 0.49 0.40 0.39 0.47 0.44 0.36 0.30 0.25 0.19 0.14 0.08 0.07 0.10 0.05 0.03 0.02 0.02 0.04 0.03 0.03 0.03 0.04 0.05 0.02 0.01 0.01 0.00
0.24 0.29 0.38 0.35 0.62 0.80 0.61 0.47 0.51 0.47 0.57 0.63 0.50 0.46 0.44 0.41 0.41 0.36 0.29 0.21 0.16 0.08 0.04 0.08 0.05 0.04 0.03 0.01 0.01 0.03 0.03 0.03 0.03 0.02 0.01 0.01 0.00 0.00
0.14 0.15 0.35 0.27 0.36 0.42 0.35 0.26 0.28 0.25 0.26 0.30 0.30 0.25 0.20 0.17 0.21 0.09 0.03 0.05 0.11 0.15 0.09 0.09 0.06 0.05 0.05 0.02 0.01 0.00 0.00 0.01 0.01 0.01 0.00 0.00 0.00 0.00
0.14 0.15 0.16 0.31 0.27 0.26 0.26 0.18 0.21 0.25 0.25 0.20 0.12 0.10 0.07 0.05 0.06 0.07 0.06 0.10 0.14 0.14 0.13 0.12 0.05 0.02 0.02 0.00 0.00 0.00 0.00 0.00 0.01 0.00 0.01 0.01 0.01 0.00
0.10 0.12 0.16 0.40 0.31 0.26 0.22 0.18 0.22 0.20 0.14 0.11 0.08 0.06 0.06 0.07 0.07 0.07 0.08 0.08 0.07 0.04 0.03 0.06 0.03 0.01 0.04 0.03 0.01 0.00 0.00 0.00 0.02 0.03 0.03 0.01 0.00 0.00
0.02 0.07 0.19 0.31 0.25 0.18 0.14 0.13 0.13 0.08 0.05 0.06 0.05 0.06 0.04 0.04 0.04 0.06 0.07 0.07 0.07 0.05 0.05 0.03 0.04 0.02 0.04 0.04 0.03 0.04 0.08 0.06 0.07 0.05 0.03 0.01 0.00 0.00
0.05 0.11 0.17 0.20 0.19 0.12 0.13 0.11 0.06 0.04 0.05 0.05 0.05 0.06 0.07 0.07 0.07 0.06 0.08 0.10 0.11 0.12 0.10 0.09 0.10 0.09 0.12 0.11 0.11 0.12 0.10 0.11 0.08 0.06 0.04 0.02 0.01 0.00
0.13 0.10 0.16 0.13 0.10 0.08 0.08 0.07 0.07 0.10 0.12 0.10 0.10 0.09 0.08 0.08 0.10 0.13 0.16 0.18 0.17 0.16 0.19 0.22 0.23 0.22 0.18 0.13 0.12 0.10 0.11 0.10 0.07 0.05 0.05 0.03 0.00 0.00
0.13 0.05 0.04 0.03 0.04 0.04 0.07 0.11 0.13 0.16 0.11 0.09 0.10 0.10 0.12 0.16 0.22 0.27 0.26 0.24 0.21 0.20 0.18 0.17 0.23 0.27 0.21 0.16 0.11 0.11 0.13 0.11 0.08 0.05 0.03 0.03 0.01 0.00
0.06 0.02 0.01 0.02 0.03 0.05 0.08 0.11 0.14 0.17 0.17 0.18 0.16 0.17 0.20 0.26 0.39 0.30 0.24 0.24 0.22 0.17 0.16 0.14 0.18 0.15 0.13 0.09 0.08 0.09 0.10 0.08 0.07 0.06 0.05 0.04 0.02 0.00
0.03 0.02 0.02 0.04 0.07 0.11 0.14 0.18 0.24 0.26 0.25 0.23 0.24 0.26 0.27 0.29 0.30 0.24 0.21 0.19 0.19 0.18 0.16 0.14 0.15 0.11 0.09 0.07 0.08 0.06 0.04 0.04 0.05 0.05 0.04 0.02 0.00 0.00
0.02 0.03 0.05 0.07 0.10 0.13 0.17 0.22 0.24 0.25 0.27 0.27 0.27 0.26 0.25 0.27 0.23 0.18 0.17 0.19 0.21 0.17 0.12 0.08 0.07 0.14 0.16 0.10 0.09 0.05 0.05 0.05 0.04 0.04 0.04 0.05 0.03 0.01
0.07 0.10 0.13 0.15 0.19 0.21 0.24 0.27 0.29 0.31 0.27 0.23 0.22 0.21 0.21 0.20 0.19 0.17 0.17 0.20 0.19 0.11 0.10 0.11 0.18 0.19 0.11 0.08 0.04 0.06 0.06 0.05 0.05 0.02 0.03 0.04 0.03 0.02
0.18 0.21 0.23 0.25 0.26 0.26 0.26 0.26 0.25 0.23 0.19 0.19 0.19 0.18 0.19 0.21 0.16 0.18 0.18 0.18 0.17 0.16 0.11 0.15 0.20 0.14 0.12 0.10 0.08 0.06 0.05 0.04 0.03 0.03 0.01 0.01 0.01 0.01

GFSNE_prec_precacc24_357.txt.gz
Total_Precipitation_Accumulation
0.00 0.00 0.00 0.00 0.00 0.00 0.00 0.00 0.00 0.00 0.00 0.00 0.00 0.00 0.00 0.00 0.00 0.00 0.00 0.00 0.00 0.00 0.00 0.00 0.00 0.00 0.00 0.00 0.00 0.00 0.01 0.01 0.02 0.03 0.03 0.03 0.03 0.03
0.00 0.00 0.00 0.00 0.00 0.00 0.00 0.00 0.00 0.00 0.00 0.00 0.00 0.00 0.00 0.00 0.00 0.00 0.00 0.00 0.00 0.00 0.00 0.00 0.00 0.00 0.00 0.00 0.00 0.00 0.01 0.01 0.01 0.02 0.03 0.03 0.03 0.03
0.00 0.00 0.00 0.00 0.00 0.00 0.00 0.00 0.00 0.00 0.01 0.00 0.00 0.00 0.00 0.00 0.00 0.00 0.00 0.00 0.00 0.00 0.00 0.00 0.00 0.00 0.00 0.00 0.00 0.00 0.01 0.01 0.01 0.02 0.03 0.03 0.03 0.04
0.02 0.01 0.00 0.01 0.00 0.01 0.01 0.01 0.01 0.01 0.02 0.02 0.00 0.00 0.00 0.00 0.00 0.00 0.00 0.00 0.00 0.00 0.00 0.00 0.00 0.00 0.00 0.00 0.00 0.00 0.01 0.02 0.04 0.05 0.05 0.05 0.05 0.03
0.02 0.02 0.02 0.03 0.03 0.03 0.02 0.02 0.03 0.03 0.03 0.04 0.03 0.01 0.00 0.00 0.00 0.00 0.00 0.00 0.00 0.00 0.00 0.00 0.00 0.00 0.00 0.00 0.01 0.03 0.04 0.08 0.09 0.08 0.06 0.04 0.02 0.02
0.09 0.09 0.08 0.08 0.06 0.07 0.05 0.03 0.05 0.06 0.06 0.04 0.03 0.02 0.01 0.00 0.00 0.00 0.01 0.01 0.00 0.00 0.00 0.00 0.01 0.02 0.04 0.05 0.05 0.05 0.08 0.10 0.10 0.07 0.04 0.04 0.03 0.02
0.09 0.08 0.08 0.10 0.08 0.07 0.05 0.02 0.02 0.03 0.03 0.03 0.04 0.04 0.03 0.03 0.05 0.07 0.06 0.04 0.02 0.01 0.02 0.02 0.03 0.04 0.04 0.09 0.13 0.16 0.17 0.12 0.08 0.04 0.05 0.04 0.03 0.02
0.12 0.09 0.07 0.14 0.11 0.20 0.17 0.14 0.15 0.13 0.12 0.13 0.12 0.10 0.07 0.09 0.09 0.10 0.12 0.15 0.18 0.09 0.08 0.07 0.06 0.08 0.07 0.08 0.12 0.15 0.12 0.07 0.05 0.06 0.05 0.05 0.04 0.05
0.10 0.11 0.13 0.16 0.32 0.17 0.25 0.29 0.26 0.39 0.43 0.42 0.31 0.27 0.31 0.36 0.49 0.46 0.36 0.33 0.28 0.20 0.17 0.14 0.06 0.06 0.07 0.07 0.08 0.04 0.04 0.04 0.05 0.06 0.06 0.07 0.07 0.05
0.04 0.08 0.11 0.13 0.29 0.41 0.30 0.28 0.31 0.43 0.69 0.90 0.91 0.86 0.88 0.79 0.74 0.67 0.55 0.41 0.30 0.19 0.16 0.20 0.07 0.04 0.03 0.03 0.05 0.04 0.03 0.03 0.04 0.07 0.07 0.05 0.05 0.04
0.16 0.21 0.33 0.31 0.59 0.80 0.59 0.46 0.49 0.47 0.60 0.72 0.63 0.60 0.60 0.62 0.65 0.61 0.49 0.39 0.28 0.12 0.06 0.11 0.07 0.05 0.03 0.01 0.01 0.05 0.04 0.03 0.02 0.03 0.04 0.05 0.05 0.05
0.05 0.06 0.22 0.14 0.18 0.25 0.23 0.15 0.18 0.16 0.18 0.24 0.29 0.26 0.22 0.20 0.24 0.13 0.05 0.06 0.13 0.16 0.09 0.10 0.06 0.05 0.06 0.02 0.01 0.00 0.00 0.03 0.04 0.04 0.04 0.05 0.06 0.06
0.03 0.04 0.05 0.14 0.12 0.12 0.14 0.10 0.13 0.16 0.17 0.15 0.09 0.08 0.07 0.05 0.06 0.07 0.06 0.09 0.14 0.15 0.17 0.15 0.05 0.02 0.02 0.01 0.00 0.00 0.00 0.01 0.03 0.04 0.07 0.11 0.13 0.18
0.01 0.01 0.03 0.14 0.11 0.09 0.07 0.08 0.13 0.13 0.09 0.07 0.06 0.05 0.06 0.06 0.06 0.06 0.08 0.08 0.07 0.04 0.06 0.10 0.03 0.02 0.04 0.05 0.02 0.01 0.01 0.02 0.06 0.13 0.19 0.24 0.25 0.25
0.00 0.01 0.03 0.06 0.06 0.05 0.04 0.04 0.07 0.04 0.02 0.01 0.02 0.04 0.03 0.03 0.03 0.05 0.07 0.07 0.07 0.05 0.06 0.04 0.05 0.04 0.07 0.09 0.09 0.09 0.15 0.14 0.19 0.24 0.25 0.21 0.17 0.19
0.01 0.01 0.03 0.03 0.04 0.03 0.04 0.04 0.03 0.01 0.02 0.02 0.02 0.04 0.05 0.06 0.06 0.06 0.08 0.10 0.11 0.12 0.11 0.10 0.14 0.15 0.22 0.23 0.20 0.22 0.17 0.18 0.18 0.18 0.19 0.20 0.17 0.16
0.03 0.01 0.02 0.01 0.01 0.01 0.01 0.01 0.02 0.04 0.06 0.04 0.05 0.06 0.06 0.07 0.10 0.13 0.16 0.18 0.18 0.17 0.20 0.23 0.27 0.28 0.25 0.21 0.21 0.16 0.18 0.20 0.17 0.18 0.22 0.20 0.16 0.15
0.03 0.00 0.00 0.00 0.01 0.01 0.01 0.02 0.02 0.06 0.04 0.04 0.06 0.08 0.11 0.16 0.22 0.27 0.27 0.25 0.22 0.20 0.19 0.19 0.26 0.34 0.27 0.20 0.16 0.16 0.22 0.21 0.21 0.20 0.18 0.17 0.15 0.13
0.03 0.01 0.00 0.01 0.00 0.01 0.01 0.02 0.04 0.07 0.09 0.13 0.14 0.16 0.20 0.27 0.41 0.31 0.25 0.25 0.23 0.19 0.17 0.16 0.22 0.20 0.17 0.11 0.09 0.11 0.16 0.17 0.18 0.19 0.15 0.14 0.10 0.09
0.02 0.01 0.01 0.01 0.01 0.02 0.05 0.09 0.15 0.17 0.20 0.20 0.23 0.25 0.27 0.30 0.31 0.26 0.23 0.21 0.21 0.19 0.18 0.16 0.17 0.13 0.12 0.09 0.11 0.09 0.09 0.10 0.12 0.13 0.13 0.13 0.11 0.08
0.01 0.01 0.02 0.03 0.04 0.06 0.11 0.16 0.18 0.21 0.25 0.26 0.27 0.26 0.26 0.28 0.25 0.19 0.19 0.21 0.23 0.20 0.14 0.08 0.07 0.15 0.24 0.17 0.15 0.07 0.09 0.12 0.11 0.09 0.11 0.15 0.10 0.06
0.02 0.03 0.05 0.06 0.08 0.12 0.16 0.20 0.24 0.28 0.25 0.22 0.22 0.21 0.21 0.21 0.20 0.18 0.19 0.21 0.20 0.13 0.12 0.12 0.18 0.24 0.19 0.11 0.07 0.09 0.13 0.15 0.17 0.11 0.08 0.07 0.04 0.04
0.04 0.05 0.07 0.09 0.11 0.14 0.18 0.20 0.22 0.21 0.17 0.18 0.19 0.19 0.20 0.23 0.18 0.18 0.19 0.19 0.18 0.18 0.14 0.16 0.22 0.19 0.16 0.13 0.15 0.10 0.13 0.13 0.12 0.13 0.13 0.08 0.03 0.02

GFSNE_prec_precacc24_360.txt.gz
Total_Precipitation_Accumulation
0.00 0.00 0.00 0.00 0.00 0.00 0.00 0.00 0.00 0.00 0.00 0.00 0.00 0.00 0.00 0.00 0.00 0.00 0.00 0.00 0.00 0.00 0.00 0.00 0.00 0.00 0.00 0.00 0.00 0.00 0.00 0.01 0.01 0.01 0.02 0.02 0.02 0.03
0.00 0.00 0.00 0.00 0.00 0.00 0.00 0.00 0.00 0.00 0.01 0.00 0.00 0.00 0.00 0.00 0.00 0.00 0.00 0.00 0.00 0.00 0.00 0.00 0.00 0.00 0.00 0.00 0.00 0.00 0.00 0.00 0.00 0.01 0.02 0.03 0.03 0.04
0.00 0.00 0.00 0.00 0.00 0.00 0.00 0.00 0.00 0.00 0.02 0.01 0.00 0.00 0.00 0.00 0.00 0.00 0.00 0.00 0.00 0.00 0.00 0.00 0.00 0.00 0.00 0.00 0.00 0.00 0.00 0.01 0.01 0.02 0.03 0.04 0.06 0.10
0.02 0.01 0.00 0.01 0.00 0.01 0.01 0.01 0.02 0.02 0.03 0.03 0.01 0.00 0.00 0.00 0.00 0.00 0.00 0.00 0.00 0.00 0.00 0.00 0.00 0.00 0.00 0.00 0.01 0.02 0.02 0.03 0.05 0.05 0.07 0.12 0.16 0.16
0.03 0.03 0.03 0.04 0.03 0.05 0.04 0.03 0.04 0.06 0.07 0.07 0.05 0.02 0.00 0.00 0.00 0.00 0.00 0.00 0.00 0.00 0.00 0.00 0.00 0.00 0.01 0.02 0.03 0.04 0.05 0.08 0.10 0.15 0.20 0.20 0.15 0.14
0.15 0.13 0.12 0.11 0.07 0.07 0.06 0.04 0.07 0.08 0.07 0.05 0.04 0.04 0.02 0.00 0.00 0.00 0.01 0.01 0.01 0.00 0.00 0.00 0.01 0.03 0.05 0.05 0.06 0.07 0.11 0.16 0.21 0.23 0.22 0.19 0.16 0.14
0.13 0.11 0.11 0.15 0.12 0.08 0.06 0.03 0.03 0.03 0.04 0.04 0.06 0.07 0.05 0.05 0.07 0.08 0.07 0.04 0.02 0.01 0.02 0.02 0.04 0.06 0.05 0.09 0.15 0.21 0.24 0.22 0.18 0.16 0.16 0.14 0.12 0.08
0.25 0.18 0.13 0.23 0.20 0.28 0.21 0.21 0.22 0.19 0.16 0.18 0.13 0.11 0.09 0.10 0.12 0.14 0.16 0.17 0.20 0.09 0.08 0.07 0.06 0.08 0.07 0.08 0.13 0.16 0.13 0.11 0.11 0.11 0.08 0.08 0.08 0.08
0.15 0.18 0.22 0.25 0.42 0.21 0.32 0.38 0.33 0.47 0.50 0.45 0.31 0.27 0.31 0.36 0.48 0.46 0.39 0.38 0.31 0.21 0.17 0.14 0.06 0.06 0.07 0.07 0.08 0.07 0.07 0.06 0.05 0.05 0.06 0.08 0.09 0.07
0.06 0.10 0.13 0.13 0.28 0.39 0.27 0.24 0.29 0.40 0.66 0.87 0.87 0.82 0.85 0.77 0.74 0.68 0.56 0.41 0.30 0.19 0.16 0.21 0.07 0.04 0.03 0.03 0.05 0.05 0.03 0.03 0.04 0.06 0.07 0.06 0.06 0.05
0.15 0.20 0.31 0.30 0.58 0.77 0.57 0.43 0.42 0.38 0.52 0.64 0.57 0.54 0.57 0.60 0.62 0.58 0.47 0.38 0.28 0.12 0.06 0.11 0.07 0.05 0.03 0.01 0.01 0.05 0.04 0.03 0.02 0.02 0.04 0.06 0.07 0.07
0.04 0.05 0.18 0.12 0.15 0.21 0.21 0.15 0.16 0.13 0.14 0.17 0.20 0.21 0.19 0.16 0.19 0.11 0.05 0.06 0.13 0.15 0.09 0.10 0.06 0.05 0.06 0.02 0.01 0.00 0.00 0.03 0.04 0.04 0.04 0.06 0.08 0.08
0.00 0.01 0.02 0.06 0.06 0.07 0.09 0.07 0.09 0.12 0.11 0.09 0.05 0.03 0.02 0.03 0.05 0.07 0.06 0.08 0.13 0.14 0.18 0.15 0.05 0.03 0.03 0.01 0.00 0.00 0.00 0.01 0.03 0.04 0.08 0.12 0.16 0.24
0.00 0.00 0.00 0.04 0.03 0.03 0.04 0.03 0.06 0.06 0.03 0.02 0.01 0.01 0.03 0.05 0.06 0.06 0.06 0.07 0.07 0.04 0.06 0.10 0.03 0.02 0.04 0.05 0.03 0.01 0.01 0.02 0.06 0.13 0.19 0.25 0.28 0.31
0.00 0.00 0.01 0.02 0.02 0.02 0.02 0.02 0.03 0.01 0.00 0.00 0.00 0.01 0.01 0.02 0.03 0.03 0.05 0.06 0.07 0.06 0.06 0.04 0.05 0.05 0.08 0.10 0.09 0.09 0.15 0.14 0.19 0.24 0.25 0.21 0.18 0.22
0.00 0.01 0.02 0.01 0.01 0.01 0.02 0.02 0.01 0.00 0.01 0.00 0.00 0.01 0.02 0.04 0.03 0.03 0.06 0.08 0.11 0.12 0.11 0.11 0.14 0.15 0.23 0.23 0.21 0.22 0.18 0.18 0.18 0.18 0.20 0.21 0.19 0.19
0.01 0.00 0.01 0.00 0.00 0.00 0.00 0.00 0.00 0.01 0.01 0.00 0.01 0.02 0.04 0.05 0.06 0.09 0.15 0.18 0.18 0.17 0.20 0.23 0.27 0.28 0.25 0.21 0.22 0.16 0.18 0.20 0.17 0.18 0.25 0.21 0.18 0.17
0.01 0.00 0.00 0.00 0.00 0.00 0.00 0.01 0.00 0.04 0.02 0.01 0.02 0.04 0.05 0.09 0.17 0.25 0.26 0.25 0.22 0.20 0.20 0.19 0.26 0.34 0.27 0.20 0.16 0.16 0.22 0.21 0.21 0.22 0.21 0.19 0.15 0.14
0.02 0.00 0.00 0.00 0.00 0.00 0.00 0.01 0.01 0.02 0.02 0.04 0.06 0.09 0.13 0.21 0.38 0.30 0.25 0.25 0.23 0.19 0.17 0.16 0.22 0.20 0.19 0.11 0.09 0.11 0.16 0.17 0.18 0.20 0.16 0.16 0.11 0.09
0.01 0.00 0.01 0.01 0.01 0.01 0.01 0.02 0.04 0.06 0.07 0.11 0.15 0.18 0.21 0.26 0.29 0.24 0.22 0.21 0.21 0.20 0.18 0.16 0.17 0.13 0.15 0.11 0.14 0.09 0.10 0.11 0.13 0.14 0.14 0.16 0.13 0.10
0.00 0.01 0.01 0.01 0.01 0.02 0.04 0.06 0.08 0.10 0.15 0.18 0.19 0.20 0.20 0.24 0.23 0.19 0.19 0.21 0.23 0.20 0.14 0.09 0.07 0.15 0.26 0.21 0.17 0.07 0.09 0.12 0.12 0.10 0.13 0.18 0.13 0.08
0.01 0.02 0.02 0.02 0.04 0.06 0.08 0.10 0.12 0.16 0.17 0.16 0.16 0.16 0.17 0.18 0.19 0.18 0.19 0.21 0.20 0.13 0.12 0.12 0.18 0.24 0.20 0.12 0.08 0.09 0.13 0.15 0.17 0.14 0.11 0.09 0.05 0.04
0.02 0.02 0.02 0.03 0.04 0.05 0.07 0.10 0.11 0.13 0.11 0.11 0.14 0.14 0.17 0.21 0.17 0.18 0.19 0.19 0.18 0.18 0.14 0.16 0.22 0.19 0.16 0.14 0.16 0.11 0.13 0.14 0.13 0.15 0.16 0.11 0.04 0.02

GFSNE_prec_precacc24_363.txt.gz
Total_Precipitation_Accumulation
0.00 0.00 0.00 0.00 0.00 0.00 0.00 0.00 0.00 0.00 0.00 0.00 0.00 0.00 0.00 0.00 0.00 0.00 0.00 0.00 0.00 0.00 0.00 0.00 0.00 0.00 0.00 0.00 0.00 0.00 0.00 0.00 0.00 0.00 0.01 0.02 0.02 0.02
0.00 0.00 0.00 0.00 0.00 0.00 0.00 0.00 0.00 0.00 0.02 0.00 0.00 0.00 0.00 0.00 0.00 0.00 0.00 0.00 0.00 0.00 0.00 0.00 0.00 0.00 0.00 0.00 0.00 0.00 0.00 0.00 0.00 0.00 0.01 0.02 0.04 0.05
0.00 0.00 0.00 0.00 0.00 0.00 0.00 0.00 0.00 0.01 0.03 0.01 0.00 0.00 0.00 0.00 0.00 0.00 0.00 0.00 0.00 0.00 0.00 0.00 0.00 0.00 0.00 0.00 0.00 0.00 0.00 0.01 0.03 0.05 0.06 0.07 0.08 0.14
0.02 0.01 0.00 0.01 0.00 0.01 0.01 0.02 0.03 0.04 0.04 0.04 0.01 0.00 0.00 0.00 0.00 0.00 0.00 0.00 0.00 0.01 0.00 0.00 0.00 0.00 0.00 0.01 0.02 0.03 0.04 0.05 0.07 0.06 0.08 0.15 0.25 0.28
0.04 0.03 0.03 0.05 0.04 0.07 0.05 0.05 0.06 0.07 0.08 0.10 0.06 0.02 0.01 0.00 0.00 0.00 0.00 0.00 0.00 0.00 0.00 0.00 0.00 0.01 0.01 0.02 0.03 0.05 0.05 0.08 0.10 0.16 0.21 0.23 0.21 0.23
0.21 0.22 0.26 0.28 0.19 0.11 0.07 0.06 0.09 0.09 0.08 0.06 0.05 0.06 0.03 0.01 0.02 0.01 0.01 0.01 0.01 0.00 0.00 0.00 0.01 0.03 0.05 0.06 0.06 0.07 0.11 0.16 0.21 0.23 0.23 0.21 0.20 0.18
0.18 0.14 0.14 0.20 0.16 0.12 0.10 0.05 0.05 0.05 0.05 0.06 0.08 0.09 0.07 0.06 0.08 0.09 0.07 0.04 0.01 0.01 0.02 0.02 0.04 0.06 0.05 0.09 0.15 0.21 0.24 0.21 0.18 0.17 0.17 0.16 0.14 0.11
0.31 0.21 0.16 0.27 0.22 0.33 0.29 0.26 0.28 0.26 0.26 0.28 0.19 0.14 0.09 0.08 0.10 0.13 0.14 0.14 0.18 0.08 0.08 0.07 0.06 0.08 0.07 0.08 0.13 0.16 0.13 0.11 0.11 0.10 0.09 0.09 0.09 0.09
0.18 0.21 0.25 0.28 0.45 0.22 0.38 0.46 0.40 0.52 0.52 0.45 0.30 0.25 0.29 0.34 0.46 0.42 0.34 0.33 0.29 0.20 0.17 0.13 0.05 0.06 0.07 0.07 0.08 0.07 0.07 0.06 0.05 0.05 0.06 0.08 0.09 0.08
0.10 0.11 0.14 0.14 0.25 0.36 0.24 0.23 0.28 0.39 0.65 0.86 0.86 0.81 0.83 0.74 0.69 0.63 0.52 0.39 0.28 0.18 0.16 0.20 0.07 0.04 0.03 0.03 0.05 0.05 0.03 0.03 0.04 0.06 0.07 0.06 0.06 0.06
0.16 0.20 0.30 0.29 0.55 0.71 0.53 0.41 0.40 0.37 0.51 0.63 0.55 0.53 0.55 0.57 0.60 0.56 0.45 0.37 0.27 0.12 0.06 0.11 0.07 0.04 0.03 0.01 0.01 0.05 0.04 0.03 0.02 0.02 0.04 0.06 0.07 0.07
0.03 0.04 0.15 0.10 0.13 0.17 0.16 0.10 0.10 0.08 0.09 0.12 0.15 0.16 0.15 0.13 0.16 0.09 0.04 0.06 0.12 0.15 0.09 0.09 0.06 0.05 0.06 0.02 0.01 0.00 0.00 0.03 0.04 0.03 0.04 0.06 0.08 0.09
0.00 0.01 0.01 0.03 0.03 0.05 0.05 0.03 0.03 0.04 0.04 0.03 0.01 0.00 0.01 0.01 0.02 0.04 0.05 0.08 0.13 0.14 0.18 0.16 0.05 0.03 0.03 0.01 0.00 0.00 0.00 0.01 0.03 0.04 0.08 0.12 0.16 0.24
0.00 0.00 0.00 0.01 0.01 0.01 0.02 0.01 0.02 0.03 0.01 0.01 0.00 0.00 0.01 0.02 0.03 0.04 0.06 0.06 0.04 0.02 0.05 0.10 0.04 0.03 0.05 0.06 0.03 0.01 0.01 0.02 0.06 0.13 0.19 0.25 0.28 0.31
0.00 0.00 0.00 0.01 0.01 0.01 0.01 0.01 0.02 0.01 0.00 0.00 0.00 0.01 0.00 0.01 0.01 0.02 0.03 0.03 0.03 0.04 0.06 0.04 0.05 0.05 0.08 0.12 0.10 0.09 0.15 0.14 0.19 0.24 0.25 0.21 0.18 0.22
0.00 0.01 0.01 0.01 0.01 0.00 0.01 0.01 0.00 0.00 0.01 0.00 0.00 0.00 0.01 0.01 0.01 0.02 0.03 0.04 0.06 0.09 0.09 0.10 0.14 0.15 0.24 0.24 0.21 0.22 0.18 0.18 0.18 0.18 0.20 0.21 0.19 0.19
0.01 0.00 0.00 0.00 0.00 0.00 0.00 0.00 0.00 0.00 0.01 0.00 0.00 0.00 0.01 0.02 0.04 0.05 0.07 0.10 0.13 0.13 0.18 0.23 0.27 0.28 0.25 0.21 0.22 0.16 0.18 0.20 0.17 0.18 0.25 0.22 0.18 0.17
0.00 0.00 0.00 0.00 0.00 0.00 0.00 0.00 0.00 0.02 0.01 0.00 0.01 0.02 0.03 0.06 0.10 0.14 0.16 0.17 0.17 0.18 0.19 0.19 0.26 0.34 0.27 0.20 0.16 0.16 0.22 0.21 0.21 0.22 0.21 0.20 0.15 0.14
0.00 0.00 0.00 0.00 0.00 0.00 0.00 0.00 0.01 0.01 0.01 0.02 0.02 0.04 0.07 0.13 0.28 0.22 0.18 0.20 0.21 0.18 0.17 0.16 0.21 0.20 0.20 0.11 0.09 0.11 0.16 0.17 0.18 0.20 0.16 0.16 0.12 0.09
0.00 0.00 0.01 0.01 0.01 0.01 0.01 0.01 0.02 0.02 0.03 0.04 0.07 0.10 0.13 0.17 0.22 0.18 0.17 0.18 0.20 0.20 0.18 0.16 0.17 0.13 0.16 0.14 0.16 0.10 0.10 0.11 0.13 0.15 0.15 0.16 0.13 0.10
0.00 0.01 0.01 0.01 0.01 0.01 0.01 0.02 0.03 0.05 0.07 0.09 0.12 0.14 0.14 0.18 0.19 0.15 0.16 0.18 0.22 0.19 0.14 0.08 0.07 0.15 0.26 0.21 0.17 0.07 0.09 0.12 0.12 0.11 0.14 0.19 0.13 0.08
0.01 0.01 0.01 0.01 0.01 0.01 0.03 0.04 0.05 0.07 0.08 0.09 0.11 0.11 0.12 0.14 0.16 0.15 0.16 0.20 0.19 0.13 0.12 0.12 0.18 0.24 0.20 0.13 0.09 0.09 0.13 0.15 0.17 0.14 0.12 0.11 0.06 0.05
0.01 0.01 0.01 0.02 0.02 0.02 0.03 0.05 0.07 0.08 0.07 0.07 0.09 0.09 0.11 0.16 0.12 0.15 0.16 0.18 0.18 0.19 0.13 0.16 0.22 0.18 0.16 0.14 0.16 0.12 0.13 0.14 0.13 0.15 0.16 0.12 0.06 0.02

GFSNE_prec_precacc24_369.txt.gz
Total_Precipitation_Accumulation
0.00 0.00 0.00 0.00 0.00 0.00 0.00 0.00 0.00 0.00 0.00 0.00 0.00 0.00 0.00 0.00 0.00 0.00 0.00 0.00 0.00 0.00 0.00 0.00 0.00 0.00 0.00 0.00 0.00 0.00 0.00 0.00 0.00 0.00 0.00 0.01 0.02 0.03
0.00 0.00 0.00 0.00 0.00 0.00 0.00 0.00 0.00 0.00 0.02 0.00 0.00 0.00 0.00 0.00 0.00 0.00 0.00 0.00 0.00 0.00 0.00 0.00 0.00 0.00 0.00 0.00 0.00 0.00 0.00 0.00 0.01 0.01 0.02 0.04 0.07 0.11
0.00 0.00 0.00 0.00 0.00 0.00 0.00 0.00 0.00 0.01 0.03 0.01 0.00 0.00 0.00 0.00 0.00 0.00 0.00 0.00 0.00 0.00 0.00 0.00 0.00 0.00 0.00 0.00 0.00 0.00 0.01 0.02 0.04 0.07 0.09 0.09 0.10 0.15
0.02 0.01 0.00 0.01 0.00 0.01 0.02 0.02 0.03 0.04 0.05 0.05 0.01 0.00 0.00 0.00 0.00 0.00 0.00 0.00 0.00 0.01 0.00 0.00 0.00 0.00 0.00 0.01 0.02 0.03 0.04 0.05 0.06 0.06 0.08 0.15 0.25 0.28
0.03 0.02 0.03 0.05 0.05 0.08 0.06 0.06 0.07 0.08 0.10 0.13 0.08 0.04 0.01 0.00 0.00 0.00 0.00 0.00 0.00 0.00 0.00 0.00 0.00 0.01 0.01 0.02 0.03 0.05 0.05 0.08 0.10 0.16 0.21 0.23 0.21 0.23
0.24 0.23 0.26 0.30 0.25 0.19 0.17 0.18 0.22 0.23 0.21 0.17 0.12 0.11 0.06 0.03 0.02 0.01 0.01 0.01 0.01 0.00 0.00 0.00 0.01 0.03 0.05 0.06 0.06 0.07 0.11 0.16 0.20 0.23 0.22 0.21 0.20 0.19
0.24 0.20 0.22 0.33 0.34 0.32 0.32 0.28 0.26 0.23 0.19 0.14 0.12 0.12 0.09 0.07 0.08 0.09 0.07 0.03 0.01 0.00 0.01 0.01 0.04 0.06 0.05 0.09 0.15 0.21 0.24 0.22 0.18 0.16 0.17 0.16 0.14 0.11
0.42 0.37 0.35 0.46 0.38 0.51 0.46 0.42 0.39 0.32 0.27 0.29 0.24 0.17 0.09 0.08 0.10 0.12 0.12 0.11 0.12 0.05 0.05 0.06 0.06 0.08 0.07 0.08 0.13 0.16 0.13 0.11 0.11 0.10 0.08 0.09 0.09 0.10
0.51 0.55 0.55 0.55 0.66 0.37 0.52 0.57 0.46 0.56 0.53 0.44 0.30 0.25 0.26 0.30 0.38 0.34 0.26 0.23 0.20 0.15 0.14 0.12 0.05 0.06 0.07 0.07 0.08 0.07 0.07 0.06 0.05 0.05 0.06 0.08 0.09 0.08
0.16 0.23 0.27 0.24 0.32 0.39 0.25 0.24 0.28 0.38 0.58 0.80 0.85 0.78 0.76 0.67 0.62 0.55 0.42 0.28 0.20 0.14 0.14 0.18 0.07 0.04 0.02 0.03 0.05 0.05 0.03 0.03 0.04 0.06 0.07 0.06 0.06 0.07
0.19 0.24 0.34 0.33 0.59 0.75 0.54 0.44 0.42 0.39 0.47 0.53 0.47 0.46 0.47 0.49 0.50 0.45 0.32 0.25 0.17 0.08 0.04 0.09 0.04 0.03 0.03 0.01 0.01 0.05 0.04 0.03 0.02 0.02 0.04 0.05 0.07 0.09
0.13 0.16 0.29 0.21 0.26 0.26 0.24 0.19 0.18 0.15 0.11 0.07 0.08 0.09 0.09 0.08 0.11 0.07 0.03 0.03 0.06 0.06 0.02 0.04 0.02 0.03 0.05 0.02 0.01 0.00 0.00 0.03 0.04 0.03 0.04 0.06 0.08 0.09
0.15 0.11 0.10 0.11 0.09 0.08 0.07 0.06 0.04 0.02 0.02 0.01 0.00 0.00 0.00 0.00 0.01 0.02 0.01 0.01 0.02 0.03 0.10 0.10 0.03 0.02 0.04 0.02 0.00 0.00 0.00 0.01 0.03 0.04 0.08 0.13 0.16 0.25
0.15 0.09 0.07 0.06 0.03 0.01 0.00 0.00 0.00 0.00 0.00 0.00 0.00 0.00 0.00 0.00 0.00 0.00 0.00 0.00 0.01 0.01 0.04 0.09 0.04 0.03 0.06 0.06 0.03 0.01 0.01 0.02 0.06 0.13 0.19 0.25 0.28 0.31
0.04 0.02 0.00 0.00 0.00 0.00 0.00 0.00 0.00 0.00 0.00 0.00 0.00 0.00 0.00 0.00 0.00 0.00 0.00 0.00 0.01 0.02 0.05 0.02 0.03 0.04 0.09 0.12 0.11 0.10 0.15 0.14 0.19 0.24 0.25 0.21 0.18 0.22
0.00 0.00 0.00 0.00 0.00 0.00 0.00 0.00 0.00 0.00 0.00 0.00 0.00 0.00 0.00 0.00 0.00 0.00 0.01 0.01 0.02 0.03 0.03 0.04 0.08 0.11 0.21 0.23 0.21 0.22 0.18 0.19 0.18 0.18 0.20 0.21 0.19 0.19
0.00 0.00 0.00 0.00 0.00 0.00 0.00 0.00 0.00 0.00 0.00 0.00 0.00 0.00 0.01 0.01 0.01 0.01 0.01 0.02 0.04 0.03 0.05 0.10 0.16 0.22 0.23 0.20 0.21 0.16 0.18 0.20 0.17 0.19 0.26 0.22 0.18 0.17
0.00 0.00 0.00 0.00 0.00 0.00 0.00 0.00 0.00 0.00 0.00 0.00 0.00 0.01 0.01 0.01 0.02 0.03 0.04 0.06 0.07 0.06 0.07 0.10 0.18 0.27 0.22 0.18 0.16 0.16 0.22 0.22 0.21 0.22 0.22 0.21 0.16 0.14
0.00 0.00 0.00 0.00 0.00 0.00 0.00 0.00 0.01 0.01 0.01 0.01 0.00 0.01 0.01 0.03 0.12 0.07 0.06 0.07 0.07 0.06 0.07 0.10 0.15 0.17 0.18 0.10 0.08 0.11 0.16 0.17 0.19 0.21 0.17 0.17 0.13 0.09
0.00 0.00 0.00 0.00 0.00 0.00 0.01 0.01 0.01 0.01 0.00 0.01 0.02 0.02 0.03 0.06 0.09 0.08 0.07 0.09 0.10 0.09 0.10 0.10 0.12 0.09 0.16 0.14 0.18 0.10 0.10 0.11 0.13 0.16 0.16 0.17 0.14 0.10
0.00 0.00 0.00 0.00 0.00 0.00 0.00 0.01 0.01 0.02 0.02 0.02 0.03 0.04 0.04 0.08 0.09 0.08 0.08 0.09 0.11 0.12 0.09 0.04 0.02 0.10 0.23 0.21 0.19 0.07 0.09 0.12 0.12 0.13 0.16 0.22 0.14 0.09
0.00 0.00 0.00 0.00 0.00 0.01 0.01 0.01 0.01 0.02 0.02 0.03 0.04 0.05 0.04 0.06 0.08 0.08 0.07 0.09 0.10 0.07 0.06 0.05 0.11 0.20 0.18 0.12 0.10 0.09 0.13 0.15 0.17 0.14 0.12 0.14 0.12 0.10
0.00 0.00 0.00 0.01 0.01 0.01 0.01 0.02 0.02 0.02 0.02 0.03 0.03 0.04 0.05 0.07 0.05 0.07 0.06 0.07 0.11 0.11 0.07 0.11 0.15 0.13 0.11 0.12 0.16 0.12 0.13 0.13 0.13 0.15 0.16 0.12 0.06 0.03